Satellite: NOAA-17
Catalog number: 27453
Epoch time:      04351.83642662
Element set:     170
Inclination:       98.6829 deg
RA of node:        61.9480 deg
Eccentricity:    0.0011212
Arg of perigee:   221.6087 deg
Mean anomaly:     138.4719 deg
Mean motion:   14.23608811 rev/day
Decay rate:       1.83e-06 rev/day^2
Epoch rev:           12889
Checksum:              307

/EX
SB KEPS @ AMSAT  $ORB04351.M
Orbital Elements  04351.MISC

HR AMSAT ORBITAL ELEMENTS FOR MANNED AND MISCELLANEOUS SATELLITES
FROM WA5QGD FORT WORTH,TX December 16, 2004
SEND SUBSCRIBE/UNSUBSCRIBE TO majordomo@amsat.org ONLY
BID: ORB04351.M
TO ALL RADIO AMATEURS BT

Satellite: HUBBLE
Catalog number: 20580
Epoch time:      04351.43847261
Element set:     229
Inclination:       28.4696 deg
RA of node:        19.3264 deg
Eccentricity:    0.0003687
Arg of perigee:   131.3478 deg
Mean anomaly:     228.7422 deg
Mean motion:   14.99494291 rev/day
Decay rate:       9.95e-06 rev/day^2
Epoch rev:           60278
Checksum:              321

Satellite: UARS
Catalog number: 21701
Epoch time:      04351.11803458
Element set:     334
Inclination:       56.9785 deg
RA of node:       212.0957 deg
Eccentricity:    0.0005488
Arg of perigee:    80.4273 deg
Mean anomaly:     279.7390 deg
Mean motion:   15.03711540 rev/day
Decay rate:       3.21e-06 rev/day^2
Epoch rev:           72595
Checksum:              286

Satellite: PO-34
Catalog number: 25520
Epoch time:      04351.51278574
Element set:      72
Inclination:       28.4598 deg
RA of node:        93.3146 deg
Eccentricity:    0.0005388
Arg of perigee:    40.6573 deg
Mean anomaly:     319.4420 deg
Mean motion:   15.15977119 rev/day
Decay rate:      1.142e-05 rev/day^2
Epoch rev:           33883
Checksum:              304

Satellite: ISS
Catalog number: 25544
Epoch time:      04351.90774463
Element set:     378
Inclination:       51.6387 deg
RA of node:       113.0548 deg
Eccentricity:    0.0004456
Arg of perigee:   113.6289 deg
Mean anomaly:     343.9592 deg
Mean motion:   15.71404311 rev/day
Decay rate:     1.6456e-04 rev/day^2
Epoch rev:           34702
Checksum:              299

Satellite: OO-38
Catalog number: 26063
Epoch time:      04350.56342947
Element set:     235
Inclination:      100.2239 deg
RA of node:       170.8172 deg
Eccentricity:    0.0036758
Arg of perigee:   211.5697 deg
Mean anomaly:     148.3280 deg
Mean motion:   14.35689856 rev/day
Decay rate:        5.8e-07 rev/day^2
Epoch rev:           25594
Checksum:              323

Satellite: NO-45
Catalog number: 26932
Epoch time:      04350.83524777
Element set:     918
Inclination:       67.0597 deg
RA of node:       339.6552 deg
Eccentricity:    0.0008084
Arg of perigee:   281.4130 deg
Mean anomaly:      78.6069 deg
Mean motion:   14.29461982 rev/day
Decay rate:       2.66e-06 rev/day^2
Epoch rev:           16759
Checksum:              344

/EX



----
Via the keps mailing list at AMSAT.ORG courtesy of AMSAT-NA.
To unsubscribe, send "unsubscribe keps" to Majordomo@amsat.org

--- ViaMAIL!/WC v1.60d
 * Origin: Chowdanet (401-331-0615) telnet://chowdanet.com  (1:323/120)